Location: Gold Fund Mine
(38.3819°N, 119.0996°W)
Time: 17:38:10
(UTC+00:00)

PSLV R/B - Pass Details

Date: 18 September 2020
Orbit: 568 x 597 km, 98.2° (Epoch: 19 October)

Event Time Altitude Azimuth Distance (km) Brightness Sun altitude
Rises 13:04:56 0° 164° (SSE) 2,754 7.5 -7.9°
Reaches altitude 10° 13:07:03 10° 163° (SSE) 1,862 6.6 -7.5°
Maximum altitude 13:11:05 83° 76° (ENE) 580 4.0 -6.7°
Drops below altitude 10° 13:15:10 10° 349° (N) 1,885 6.5 -5.9°
Sets 13:17:20 0° 349° (NNW) 2,791 7.4 -5.5°
